sat.trackr.live / text

‹ back to catalog

STARLINK-3728

NORAD 52361 · 2022-045AG

PAYLOAD ACTIVE UNKNOWN

§ Identity

Operator
Country
US
Launch date
2022-04-29
Launch site
AFETR
Launch vehicle
Mass (kg)
RCS (m²)

Purposes: comms

External: N2YO · Heavens-Above · Gunter

§ Orbital elements

Epoch: 2026-05-25T04:16:02.834112Z

Period
95.44 min
Inclination
53.2132°
Eccentricity
0.0001169
Mean motion
15.08836566 rev/d
Perigee alt
538.9 km
Apogee alt
540.6 km
Semi-major
6,917.9 km
B*
1.8945e-5
RAAN
215.7550°
Arg perigee
86.1141°
Mean anomaly
273.9985°
Rev number
22,733

§ Raw data

STARLINK-37281 52361U 22045AG  26145.17781058  .00000014  00000+0  18945-4 0  99902 52361  53.2132 215.7550 0001169  86.1141 273.9985 15.08836566227336

JSON: /api/v1/satellites/52361 · /tle

For live sub-satellite position, see the globe view (requires WebGL).

§ Visibility from observer

Set your observer location to see the next 7 days of passes ≥ 10°. The values pass through the URL so the page stays shareable.

No JS? Fill the form by hand. The geolocation button needs JavaScript.